Flag for Netherlands Weather past 2 weeks in Ede, Netherlands

Now
63 °F

Fog.


Feels Like: 63 °F
Forecast: 60 / 76 °F
Wind: 2 mph from Northwest

Location: Deelen

Current Time: Jul 26, 2014 at 2:11:25 AM

Latest Report: Jul 26, 2014 at 1:25 AM


Visibility: 3 mi

Pressure: 29.95 "Hg

Humidity: 94%

Dew point: 61 °F

Location of EdeLocation

Historic Weather in Ede — Graph

°F

Ede temperature yesterday

Maximum temperature yesterday: 68 °F (at 9:25 AM)
Minimum temperature yesterday: 61 °F (at 7:25 AM)
Average temperature yesterday: 64 °F

Past Weeks' High & Low Weather Summary

 TemperatureHumidityPressure
High93 °F (Jul 19, 5:25 PM)100% (Jul 11, 2:25 AM)30.18 "Hg (Jul 11, 2:25 AM)
Low54 °F (Jul 16, 5:25 AM)26% (Jul 19, 2:25 PM)29.71 "Hg (Jul 13, 3:55 PM)
Average69 °F76%29.97 "Hg
* Reported Jul 11 12:25 AM — Jul 26 12:55 AM, Ede, Weather by CustomWeather, © 2014

Note: Actual official high and low records may vary slightly from our data, if they occured in-between our weather recording intervals... More about our weather records

Advertising

Ede weather history for previous 24 hours

 ConditionsComfort  
Time TempWeatherWind HumidityBarometerVisibility
12:55 AM
Jul 26
63 °FFog.3 mph100%29.95 "Hg3 mi
12:25 AM63 °FFog.2 mph100%29.95 "Hg4 mi
11:55 PM
Jul 25
63 °FFog.2 mph94%29.95 "Hg4 mi
11:25 PM63 °FFog.2 mph94%29.95 "Hg5 mi
10:55 PM63 °FFog.3 mph94%29.95 "Hg6 mi
10:25 PM63 °FOvercast.3 mph94%29.95 "HgN/A
9:55 PM63 °FPassing clouds.3 mph94%29.95 "HgN/A
9:25 PM64 °FMore clouds than sun.5 mph88%29.95 "HgN/A
8:55 PM64 °FPartly sunny.6 mph88%29.95 "HgN/A
8:25 PM66 °FMostly cloudy.7 mph83%29.95 "HgN/A
7:55 PM66 °FPartly sunny.8 mph83%29.95 "HgN/A
7:25 PM66 °FBroken clouds.7 mph83%29.95 "HgN/A
6:55 PM66 °FMostly cloudy.3 mph83%29.95 "HgN/A
6:25 PM66 °FOvercast.6 mph83%29.95 "HgN/A
5:55 PM66 °FBroken clouds.9 mph83%29.95 "HgN/A
5:25 PM66 °FOvercast.7 mph83%29.95 "HgN/A
4:55 PM64 °FOvercast.7 mph88%29.98 "HgN/A
4:25 PM64 °FOvercast.7 mph88%29.98 "HgN/A
3:55 PM64 °FMostly cloudy.8 mph88%29.98 "HgN/A
3:25 PM66 °FBroken clouds.8 mph88%29.98 "HgN/A
2:55 PM66 °FDrizzle. Mostly cloudy.8 mph88%29.98 "HgN/A
2:25 PM64 °FLow clouds.7 mph94%29.98 "HgN/A
1:55 PM63 °FFog.9 mph94%29.98 "Hg6 mi
1:25 PM63 °FPartly sunny.10 mph94%30.01 "HgN/A
12:55 PM63 °FDrizzle. Broken clouds.10 mph94%30.01 "Hg4 mi
12:25 PM63 °FDrizzle. Low clouds.8 mph94%30.01 "Hg4 mi
11:55 AM64 °FLight rain. Cloudy.12 mph88%30.01 "HgN/A
11:25 AM66 °FMore clouds than sun.8 mph78%30.01 "HgN/A
10:55 AM66 °FBroken clouds.9 mph73%30.01 "HgN/A
10:25 AM68 °FBroken clouds.10 mph69%30.01 "HgN/A
9:55 AM68 °FOvercast.10 mph73%30.01 "HgN/A
9:25 AM68 °FBroken clouds.7 mph73%30.01 "HgN/A
8:55 AM64 °FBroken clouds.6 mph78%30.01 "HgN/A
8:25 AM64 °FMostly cloudy.6 mph83%30.01 "HgN/A
7:55 AM63 °FOvercast.5 mph83%30.01 "HgN/A
7:25 AM61 °FOvercast.6 mph94%30.01 "HgN/A
6:55 AM63 °FMostly cloudy.12 mph77%30.01 "HgN/A
6:25 AM63 °FMostly cloudy.8 mph77%30.01 "HgN/A
5:55 AM63 °FOvercast.9 mph77%30.01 "HgN/A
5:25 AM63 °FMostly cloudy.6 mph77%30.01 "HgN/A
4:55 AM63 °FMostly cloudy.7 mph77%30.01 "HgN/A
4:25 AM63 °FOvercast.8 mph77%30.01 "HgN/A
3:55 AM63 °FMostly cloudy.5 mph77%30.01 "HgN/A
3:25 AM63 °FOvercast.5 mph77%30.01 "HgN/A
2:55 AM64 °FOvercast.5 mph73%30.01 "HgN/A
2:25 AM64 °FOvercast.5 mph73%30.01 "HgN/A
Weather by CustomWeather, © 2014

See weather overviewHow to use our weather pages